| time (UTC) | temp F | wind direction | speed MPH | gust MPH | rain 1hr in | rain 24hr in | rain mn in | humidity % | barometer mb |
| 20260904083646 | 71 | 315 | 3.0 | 7.0 | 0.00 | 0.00 | 0.00 | 96 | 1016.1 |
| 20260904082746 | 71 | 326 | 2.0 | 5.0 | 0.00 | 0.00 | 0.00 | 96 | 1016.3 |
| 20260904081847 | 71 | 327 | 0.0 | 4.0 | 0.00 | 0.00 | 0.00 | 96 | 1016.2 |
| 20260904080947 | 71 | 161 | 0.0 | 2.0 | 0.00 | 0.00 | 0.00 | 96 | 1015.9 |
| 20260904080046 | 71 | 221 | 0.0 | 2.0 | 0.00 | 0.00 | 0.00 | 96 | 1015.7 |
| 20260904075146 | 71 | 255 | 0.0 | 1.0 | 0.00 | 0.00 | 0.00 | 96 | 1015.7 |
| 20260904074246 | 71 | 0 | 0.0 | 0.0 | 0.00 | 0.00 | 0.00 | 96 | 1015.7 |
| 20260904071547 | 71 | 11 | 3.0 | 8.0 | 0.00 | 0.00 | 0.00 | 95 | 1015.9 |
| 20260904070646 | 71 | 15 | 3.0 | 8.0 | 0.00 | 0.00 | 0.00 | 95 | 1016.3 |
| 20260904064846 | 72 | 303 | 5.0 | 10.0 | 0.00 | 0.00 | 0.00 | 95 | 1016.4 |
| 20260904063946 | 73 | 298 | 3.0 | 7.0 | 0.00 | 0.00 | 0.00 | 95 | 1016.4 |
| 20260904063046 | 72 | 259 | 8.0 | 20.0 | 0.00 | 0.00 | 0.00 | 95 | 1016.1 |
| 20260904061246 | 74 | 298 | 5.0 | 22.0 | 0.00 | 0.00 | 0.00 | 93 | 1017.3 |
| 20260904060346 | 74 | 0 | 0.0 | 0.0 | 0.00 | 0.00 | 0.00 | 94 | 1016.5 |
| 20260904055446 | 74 | 36 | 0.0 | 3.0 | 0.00 | 0.00 | 0.00 | 94 | 1016.7 |
| 20260904054546 | 74 | 0 | 0.0 | 0.0 | 0.00 | 0.00 | 0.00 | 94 | 1016.9 |
| 20260904053646 | 74 | 0 | 0.0 | 0.0 | 0.00 | 0.00 | 0.00 | 94 | 1016.8 |
| 20260904052747 | 74 | 0 | 0.0 | 0.0 | 0.00 | 0.00 | 0.00 | 94 | 1017.0 |
| 20260904051846 | 74 | 0 | 0.0 | 0.0 | 0.00 | 0.00 | 0.00 | 94 | 1017.2 |
| 20260904050946 | 74 | 0 | 0.0 | 0.0 | 0.00 | 0.00 | 0.00 | 94 | 1017.1 |
| 20260904050046 | 74 | 0 | 0.0 | 0.0 | 0.00 | 0.00 | 0.00 | 94 | 1017.3 |
| 20260904044246 | 74 | 0 | 0.0 | 0.0 | 0.00 | 0.00 | 0.00 | 94 | 1017.6 |
| 20260904043346 | 74 | 239 | 0.0 | 1.0 | 0.00 | 0.00 | 0.00 | 94 | 1017.7 |
| 20260904042446 | 74 | 0 | 0.0 | 0.0 | 0.00 | 0.00 | 0.00 | 94 | 1017.6 |
| 20260904041546 | 73 | 0 | 0.0 | 0.0 | 0.00 | 0.00 | 0.00 | 94 | 1017.6 |
| 20260904035746 | 74 | 0 | 0.0 | 0.0 | 0.00 | 0.00 | 0.00 | 94 | 1017.8 |
| 20260904034846 | 74 | 0 | 0.0 | 0.0 | 0.00 | 0.00 | 0.00 | 94 | 1017.7 |
| 20260904033946 | 74 | 0 | 0.0 | 0.0 | 0.00 | 0.00 | 0.00 | 94 | 1017.8 |
| 20260904033046 | 74 | 0 | 0.0 | 0.0 | 0.00 | 0.00 | 0.00 | 94 | 1017.8 |
| 20260904032146 | 74 | 0 | 0.0 | 0.0 | 0.00 | 0.00 | 0.00 | 94 | 1017.7 |
| 20260904031246 | 74 | 0 | 0.0 | 0.0 | 0.00 | 0.00 | 0.00 | 94 | 1017.8 |
| 20260904030346 | 74 | 0 | 0.0 | 0.0 | 0.00 | 0.00 | 0.00 | 94 | 1017.8 |
| 20260904025447 | 74 | 0 | 0.0 | 0.0 | 0.00 | 0.00 | 0.00 | 94 | 1018.0 |
| 20260904024546 | 74 | 218 | 0.0 | 2.0 | 0.00 | 0.00 | 0.00 | 94 | 1018.2 |
| 20260904023646 | 74 | 0 | 0.0 | 0.0 | 0.00 | 0.00 | 0.00 | 94 | 1018.3 |
| 20260904022747 | 74 | 0 | 0.0 | 0.0 | 0.00 | 0.00 | 0.00 | 93 | 1018.4 |
| 20260904021846 | 74 | 0 | 0.0 | 0.0 | 0.00 | 0.00 | 0.00 | 93 | 1018.5 |
| 20260904020946 | 74 | 0 | 0.0 | 0.0 | 0.00 | 0.00 | 0.00 | 93 | 1018.5 |
| 20260904020047 | 74 | 0 | 0.0 | 0.0 | 0.00 | 0.00 | 0.00 | 93 | 1018.5 |
| 20260904015146 | 74 | 0 | 0.0 | 0.0 | 0.00 | 0.00 | 0.00 | 92 | 1018.6 |
| 20260904013347 | 75 | 138 | 0.0 | 1.0 | 0.00 | 0.00 | 0.00 | 92 | 1018.9 |
| 20260904012446 | 75 | 137 | 1.0 | 3.0 | 0.00 | 0.00 | 0.00 | 92 | 1018.8 |
| 20260904011546 | 75 | 144 | 0.0 | 2.0 | 0.00 | 0.00 | 0.00 | 92 | 1018.8 |
| 20260904010646 | 75 | 141 | 0.0 | 2.0 | 0.00 | 0.00 | 0.00 | 91 | 1018.9 |
| 20260904005746 | 75 | 0 | 0.0 | 0.0 | 0.00 | 0.00 | 0.00 | 91 | 1018.7 |
| 20260904003947 | 75 | 159 | 0.0 | 2.0 | 0.00 | 0.00 | 0.00 | 90 | 1018.4 |
| 20260904003046 | 76 | 192 | 1.0 | 3.0 | 0.00 | 0.00 | 0.00 | 89 | 1018.5 |
| 20260904002146 | 76 | 210 | 1.0 | 3.0 | 0.00 | 0.00 | 0.00 | 89 | 1018.6 |
| 20260904001246 | 76 | 227 | 1.0 | 4.0 | 0.00 | 0.00 | 0.00 | 88 | 1018.4 |
| 20260904000347 | 76 | 220 | 1.0 | 4.0 | 0.00 | 0.00 | 0.00 | 88 | 1018.2 |
| 20260903235446 | 76 | 197 | 1.0 | 3.0 | 0.00 | 0.00 | 0.00 | 88 | 1018.0 |
| 20260903234547 | 76 | 188 | 0.0 | 3.0 | 0.00 | 0.00 | 0.00 | 87 | 1017.9 |
| 20260903233646 | 77 | 157 | 1.0 | 4.0 | 0.00 | 0.00 | 0.00 | 87 | 1017.9 |
| 20260903232746 | 77 | 137 | 2.0 | 3.0 | 0.00 | 0.00 | 0.00 | 86 | 1018.0 |
| 20260903231846 | 77 | 136 | 1.0 | 3.0 | 0.00 | 0.00 | 0.00 | 86 | 1018.1 |
| 20260903230946 | 78 | 168 | 1.0 | 4.0 | 0.00 | 0.00 | 0.00 | 85 | 1018.2 |
| 20260903230046 | 78 | 164 | 0.0 | 4.0 | 0.00 | 0.00 | 0.00 | 84 | 1018.3 |
| 20260903223346 | 80 | 215 | 2.0 | 4.0 | 0.00 | 0.00 | 0.00 | 80 | 1018.3 |
| 20260903221546 | 81 | 191 | 2.0 | 5.0 | 0.00 | 0.00 | 0.00 | 78 | 1018.3 |
| 20260903220646 | 82 | 200 | 1.0 | 4.0 | 0.00 | 0.00 | 0.00 | 78 | 1018.3 |
| 20260903215746 | 82 | 190 | 1.0 | 5.0 | 0.00 | 0.00 | 0.00 | 78 | 1018.2 |
| 20260903214846 | 82 | 0 | 0.0 | 0.0 | 0.00 | 0.00 | 0.00 | 76 | 1018.3 |
| 20260903213946 | 82 | 0 | 0.0 | 0.0 | 0.00 | 0.00 | 0.00 | 75 | 1018.3 |
| 20260903213046 | 82 | 0 | 0.0 | 0.0 | 0.00 | 0.00 | 0.00 | 74 | 1018.3 |
| 20260903210346 | 82 | 270 | 0.0 | 2.0 | 0.00 | 0.00 | 0.00 | 76 | 1018.1 |
| 20260903205446 | 82 | 266 | 2.0 | 5.0 | 0.00 | 0.00 | 0.00 | 75 | 1018.3 |
| 20260903204546 | 82 | 270 | 3.0 | 7.0 | 0.00 | 0.00 | 0.00 | 75 | 1018.3 |
| 20260903203646 | 82 | 266 | 3.0 | 5.0 | 0.00 | 0.00 | 0.00 | 74 | 1018.2 |
| 20260903202746 | 82 | 271 | 3.0 | 7.0 | 0.00 | 0.00 | 0.00 | 73 | 1018.4 |
| 20260903201846 | 82 | 283 | 2.0 | 5.0 | 0.00 | 0.00 | 0.00 | 74 | 1018.4 |
| 20260903200946 | 82 | 276 | 2.0 | 6.0 | 0.00 | 0.00 | 0.00 | 75 | 1018.3 |
| 20260903200046 | 82 | 279 | 3.0 | 6.0 | 0.00 | 0.00 | 0.00 | 76 | 1018.4 |
| 20260903194246 | 81 | 285 | 4.0 | 8.0 | 0.00 | 0.00 | 0.00 | 75 | 1018.6 |
| 20260903193346 | 82 | 297 | 4.0 | 8.0 | 0.00 | 0.00 | 0.00 | 74 | 1018.6 |
| 20260903192446 | 82 | 303 | 4.0 | 9.0 | 0.00 | 0.00 | 0.00 | 73 | 1018.7 |
| 20260903190646 | 82 | 306 | 5.0 | 9.0 | 0.00 | 0.00 | 0.00 | 74 | 1018.8 |
| 20260903185746 | 81 | 286 | 6.0 | 11.0 | 0.00 | 0.00 | 0.00 | 75 | 1019.1 |
| 20260903184846 | 81 | 283 | 6.0 | 12.0 | 0.00 | 0.00 | 0.00 | 76 | 1019.0 |
| 20260903183946 | 81 | 291 | 6.0 | 16.0 | 0.00 | 0.00 | 0.00 | 74 | 1019.0 |
| 20260903183046 | 81 | 294 | 5.0 | 9.0 | 0.00 | 0.00 | 0.00 | 75 | 1019.0 |
| 20260903182146 | 81 | 289 | 5.0 | 10.0 | 0.00 | 0.00 | 0.00 | 76 | 1019.0 |
| 20260903181247 | 80 | 279 | 6.0 | 13.0 | 0.00 | 0.00 | 0.00 | 76 | 1019.2 |
| 20260903180346 | 80 | 283 | 8.0 | 15.0 | 0.00 | 0.00 | 0.00 | 76 | 1019.3 |
| 20260903175446 | 80 | 294 | 6.0 | 14.0 | 0.00 | 0.00 | 0.00 | 76 | 1019.3 |
| 20260903174546 | 80 | 281 | 8.0 | 15.0 | 0.00 | 0.00 | 0.00 | 77 | 1019.3 |
| 20260903173646 | 79 | 274 | 7.0 | 14.0 | 0.00 | 0.00 | 0.00 | 76 | 1019.4 |
| 20260903171846 | 79 | 284 | 6.0 | 12.0 | 0.00 | 0.00 | 0.00 | 77 | 1019.5 |
| 20260903170946 | 79 | 282 | 7.0 | 13.0 | 0.00 | 0.00 | 0.00 | 78 | 1019.4 |
| 20260903170046 | 79 | 289 | 7.0 | 13.0 | 0.00 | 0.00 | 0.00 | 78 | 1019.6 |
| 20260903165147 | 80 | 296 | 5.0 | 13.0 | 0.00 | 0.00 | 0.00 | 78 | 1019.5 |
| 20260903164245 | 80 | 276 | 5.0 | 12.0 | 0.00 | 0.00 | 0.00 | 78 | 1019.6 |
| 20260903163345 | 79 | 272 | 5.0 | 11.0 | 0.00 | 0.00 | 0.00 | 80 | 1019.7 |
| 20260903162446 | 78 | 281 | 6.0 | 12.0 | 0.00 | 0.00 | 0.00 | 83 | 1019.8 |
| 20260903160646 | 78 | 262 | 4.0 | 11.0 | 0.00 | 0.00 | 0.00 | 84 | 1020.2 |
| 20260903155745 | 77 | 265 | 4.0 | 11.0 | 0.00 | 0.00 | 0.00 | 84 | 1020.1 |
| 20260903154846 | 77 | 275 | 4.0 | 9.0 | 0.00 | 0.00 | 0.00 | 86 | 1020.2 |
| 20260903153048 | 76 | 270 | 5.0 | 9.0 | 0.00 | 0.00 | 0.00 | 86 | 1020.3 |
| 20260903152147 | 76 | 268 | 4.0 | 10.0 | 0.00 | 0.00 | 0.00 | 87 | 1020.2 |
| 20260903151246 | 75 | 239 | 5.0 | 12.0 | 0.00 | 0.00 | 0.00 | 88 | 1020.6 |
| 20260903145446 | 75 | 260 | 5.0 | 11.0 | 0.00 | 0.00 | 0.00 | 87 | 1020.7 |
| 20260903144546 | 75 | 257 | 5.0 | 11.0 | 0.00 | 0.00 | 0.00 | 87 | 1020.5 |
| 20260903143646 | 75 | 240 | 4.0 | 12.0 | 0.00 | 0.00 | 0.00 | 88 | 1020.3 |
| 20260903142746 | 75 | 256 | 4.0 | 9.0 | 0.00 | 0.00 | 0.00 | 90 | 1020.4 |
| 20260903141845 | 74 | 245 | 4.0 | 9.0 | 0.00 | 0.00 | 0.00 | 91 | 1020.6 |
| 20260903140945 | 73 | 241 | 4.0 | 9.0 | 0.00 | 0.00 | 0.00 | 93 | 1020.7 |
| 20260903140047 | 73 | 198 | 3.0 | 5.0 | 0.00 | 0.00 | 0.00 | 94 | 1020.5 |
| 20260903135145 | 72 | 222 | 2.0 | 4.0 | 0.00 | 0.00 | 0.00 | 95 | 1020.8 |
| 20260903133346 | 71 | 216 | 3.0 | 6.0 | 0.00 | 0.00 | 0.00 | 95 | 1020.7 |
| 20260903132446 | 71 | 251 | 2.0 | 6.0 | 0.00 | 0.00 | 0.00 | 95 | 1021.2 |
| 20260903130646 | 71 | 246 | 3.0 | 8.0 | 0.00 | 0.00 | 0.00 | 95 | 1021.3 |
| 20260903124846 | 71 | 237 | 0.0 | 3.0 | 0.00 | 0.00 | 0.00 | 95 | 1021.4 |
| 20260903123946 | 71 | 258 | 1.0 | 3.0 | 0.00 | 0.00 | 0.00 | 96 | 1021.5 |
| 20260903123046 | 71 | 268 | 0.0 | 3.0 | 0.00 | 0.00 | 0.00 | 96 | 1021.7 |
| 20260903121246 | 71 | 280 | 0.0 | 2.0 | 0.00 | 0.00 | 0.00 | 96 | 1021.6 |
| 20260903120346 | 71 | 0 | 0.0 | 0.0 | 0.00 | 0.00 | 0.00 | 96 | 1021.4 |
| 20260903115445 | 70 | 0 | 0.0 | 0.0 | 0.00 | 0.00 | 0.00 | 96 | 1021.5 |
| 20260903113647 | 70 | 0 | 0.0 | 0.0 | 0.00 | 0.00 | 0.00 | 96 | 1021.6 |
| 20260903112745 | 70 | 0 | 0.0 | 0.0 | 0.00 | 0.00 | 0.00 | 96 | 1021.6 |
| 20260903110945 | 70 | 273 | 0.0 | 2.0 | 0.00 | 0.00 | 0.00 | 96 | 1021.9 |
| 20260903105145 | 70 | 261 | 2.0 | 5.0 | 0.00 | 0.00 | 0.00 | 96 | 1022.1 |
| 20260903104245 | 70 | 226 | 1.0 | 3.0 | 0.00 | 0.00 | 0.00 | 96 | 1021.6 |
| 20260903102445 | 69 | 235 | 2.0 | 5.0 | 0.00 | 0.00 | 0.00 | 96 | 1021.4 |
| 20260903101546 | 69 | 257 | 1.0 | 4.0 | 0.00 | 0.00 | 0.00 | 96 | 1021.4 |
| 20260903100645 | 69 | 267 | 1.0 | 5.0 | 0.00 | 0.00 | 0.00 | 96 | 1021.4 |
| 20260903095745 | 69 | 261 | 1.0 | 5.0 | 0.00 | 0.00 | 0.00 | 96 | 1021.2 |
| 20260903093946 | 69 | 236 | 0.0 | 4.0 | 0.00 | 0.00 | 0.00 | 96 | 1020.8 |
| 20260903093045 | 69 | 0 | 0.0 | 0.0 | 0.00 | 0.00 | 0.00 | 96 | 1020.6 |
| 20260903091245 | 69 | 213 | 1.0 | 4.0 | 0.00 | 0.00 | 0.00 | 96 | 1020.8 |
| 20260903090346 | 69 | 228 | 1.0 | 5.0 | 0.00 | 0.00 | 0.00 | 96 | 1020.9 |
| 20260903084545 | 69 | 193 | 1.0 | 5.0 | 0.00 | 0.00 | 0.00 | 96 | 1021.0 |